When you browse on this site, cookies collect data to enhance your experience and personalize the content and advertising you see.
Visit our Privacy Policy to learn more. By continuing to use the site, you agree to this use of cookies and data.
  • In Schweiz
  • Länderverzeichnis
  • Für 7 Tage
  • Wassertemperatur
  • Wetterkarte
  • Widgets
  • user-avatar
    Anmelden

    Stündliche Wetter Melbourne

    Heute, 20 Oktober, Sonntag

    Zeit Temperatur Niederschläge Wind Luftdruck Luftfeuchtigkeit
    00:00 +7°C° 0 mm 4 m/S 765 mmHg 78%
    01:00 +7°C° 0 mm 4 m/S 765 mmHg 81%
    02:00 +7°C° 0 mm 4 m/S 765 mmHg 82%
    03:00 +7°C° 0 mm 4 m/S 765 mmHg 82%
    04:00 +8°C° 0 mm 3 m/S 765 mmHg 84%
    05:00 +8°C° 0 mm 3 m/S 765 mmHg 83%
    06:00 +8°C° 0 mm 4 m/S 766 mmHg 82%
    07:00 +10°C° 0 mm 4 m/S 766 mmHg 81%
    08:00 +11°C° 0 mm 4 m/S 767 mmHg 74%
    09:00 +13°C° 0 mm 4 m/S 767 mmHg 67%
    10:00 +14°C° 0 mm 3 m/S 767 mmHg 59%
    11:00 +15°C° 0 mm 4 m/S 767 mmHg 57%
    12:00 +17°C° 0 mm 4 m/S 767 mmHg 56%
    13:00 +17°C° 0 mm 4 m/S 767 mmHg 54%
    14:00 +17°C° 0 mm 4 m/S 767 mmHg 56%
    15:00 +17°C° 0 mm 4 m/S 767 mmHg 58%
    16:00 +17°C° 0 mm 3 m/S 767 mmHg 59%
    17:00 +16°C° 0 mm 3 m/S 768 mmHg 63%
    18:00 +14°C° 0 mm 3 m/S 768 mmHg 67%
    19:00 +13°C° 0 mm 3 m/S 769 mmHg 71%
    20:00 +12°C° 0 mm 3 m/S 769 mmHg 73%
    21:00 +13°C° 0 mm 2 m/S 770 mmHg 75%
    22:00 +13°C° 0 mm 2 m/S 770 mmHg 78%
    23:00 +12°C° 0 mm 2 m/S 770 mmHg 79%

    Morgen, 21 Oktober, Montag

    Zeit Temperatur Niederschläge Wind Luftdruck Luftfeuchtigkeit
    00:00 +12°C° 0 mm 2 m/S 769 mmHg 80%
    01:00 +10°C° 0 mm 2 m/S 769 mmHg 81%
    02:00 +10°C° 0 mm 2 m/S 769 mmHg 83%
    03:00 +9°C° 0 mm 2 m/S 769 mmHg 86%
    04:00 +8°C° 0 mm 2 m/S 769 mmHg 88%
    05:00 +9°C° 0 mm 2 m/S 769 mmHg 86%
    06:00 +10°C° 0 mm 2 m/S 769 mmHg 84%
    07:00 +11°C° 0 mm 1 m/S 770 mmHg 82%
    08:00 +13°C° 0 mm 1 m/S 769 mmHg 74%
    09:00 +15°C° 0 mm 1 m/S 769 mmHg 67%
    10:00 +18°C° 0 mm 1 m/S 769 mmHg 59%
    11:00 +18°C° 0 mm 2 m/S 769 mmHg 57%
    12:00 +18°C° 0 mm 2 m/S 769 mmHg 55%
    13:00 +19°C° 0 mm 3 m/S 768 mmHg 53%
    14:00 +19°C° 0 mm 3 m/S 768 mmHg 55%
    15:00 +19°C° 0 mm 3 m/S 768 mmHg 57%
    16:00 +19°C° 0 mm 3 m/S 767 mmHg 58%
    17:00 +17°C° 0 mm 3 m/S 768 mmHg 66%
    18:00 +14°C° 0 mm 3 m/S 768 mmHg 74%
    19:00 +12°C° 0 mm 3 m/S 768 mmHg 81%
    20:00 +13°C° 0 mm 2 m/S 768 mmHg 83%
    21:00 +12°C° 0 mm 2 m/S 769 mmHg 85%
    22:00 +11°C° 0 mm 1 m/S 769 mmHg 87%
    23:00 +11°C° 0 mm 1 m/S 769 mmHg 88%

    übermorgen, 22 Oktober, Dienstag

    Zeit Temperatur Niederschläge Wind Luftdruck Luftfeuchtigkeit
    00:00 +11°C° 0 mm 1 m/S 768 mmHg 88%
    01:00 +11°C° 0 mm 1 m/S 768 mmHg 89%
    02:00 +11°C° 0 mm 1 m/S 768 mmHg 88%
    03:00 +10°C° 0 mm 0 m/S 767 mmHg 88%
    04:00 +10°C° 0 mm 0 m/S 767 mmHg 88%
    05:00 +10°C° 0 mm 0 m/S 768 mmHg 86%
    06:00 +11°C° 0 mm 0 m/S 768 mmHg 84%
    07:00 +11°C° 0 mm 0 m/S 768 mmHg 82%
    08:00 +14°C° 0 mm 0 m/S 768 mmHg 72%
    09:00 +18°C° 0 mm 1 m/S 768 mmHg 62%
    10:00 +20°C° 0 mm 1 m/S 767 mmHg 51%
    11:00 +22°C° 0 mm 1 m/S 767 mmHg 46%
    12:00 +23°C° 0 mm 2 m/S 767 mmHg 41%
    13:00 +25°C° 0 mm 2 m/S 766 mmHg 35%
    14:00 +24°C° 0 mm 2 m/S 766 mmHg 35%
    15:00 +24°C° 0 mm 2 m/S 765 mmHg 36%
    16:00 +24°C° 0 mm 2 m/S 765 mmHg 36%
    17:00 +21°C° 0 mm 2 m/S 765 mmHg 43%
    18:00 +20°C° 0 mm 1 m/S 765 mmHg 51%
    19:00 +16°C° 0 mm 1 m/S 765 mmHg 58%
    20:00 +16°C° 0 mm 1 m/S 765 mmHg 60%
    21:00 +15°C° 0 mm 1 m/S 765 mmHg 63%
    22:00 +13°C° 0 mm 0 m/S 766 mmHg 65%
    23:00 +13°C° 0 mm 0 m/S 765 mmHg 66%

    23 Oktober, Mittwoch

    Zeit Temperatur Niederschläge Wind Luftdruck Luftfeuchtigkeit
    00:00 +13°C° 0 mm 1 m/S 765 mmHg 66%
    01:00 +13°C° 0 mm 1 m/S 765 mmHg 67%
    02:00 +13°C° 0 mm 1 m/S 764 mmHg 65%
    03:00 +13°C° 0 mm 1 m/S 764 mmHg 64%
    04:00 +13°C° 0 mm 1 m/S 764 mmHg 62%
    05:00 +14°C° 0 mm 1 m/S 764 mmHg 60%
    06:00 +15°C° 0 mm 1 m/S 764 mmHg 57%
    07:00 +16°C° 0 mm 1 m/S 764 mmHg 55%
    08:00 +20°C° 0 mm 1 m/S 764 mmHg 48%
    09:00 +23°C° 0 mm 1 m/S 764 mmHg 40%
    10:00 +26°C° 0 mm 1 m/S 764 mmHg 33%
    11:00 +27°C° 0 mm 1 m/S 764 mmHg 29%
    12:00 +29°C° 0 mm 2 m/S 763 mmHg 26%
    13:00 +30°C° 0 mm 2 m/S 763 mmHg 23%
    14:00 +30°C° 0 mm 2 m/S 762 mmHg 25%
    15:00 +29°C° 0 mm 2 m/S 762 mmHg 28%
    16:00 +29°C° 0 mm 2 m/S 761 mmHg 31%
    17:00 +27°C° 0 mm 1 m/S 761 mmHg 36%
    18:00 +25°C° 0 mm 1 m/S 762 mmHg 42%
    19:00 +21°C° 0 mm 0 m/S 762 mmHg 48%
    20:00 +22°C° 0 mm 1 m/S 762 mmHg 50%
    21:00 +21°C° 0 mm 1 m/S 762 mmHg 52%
    22:00 +19°C° 0 mm 2 m/S 762 mmHg 55%
    23:00 +19°C° 0 mm 2 m/S 761 mmHg 55%

    24 Oktober, Donnerstag

    Zeit Temperatur Niederschläge Wind Luftdruck Luftfeuchtigkeit
    00:00 +18°C° 0 mm 2 m/S 761 mmHg 55%
    01:00 +18°C° 0 mm 2 m/S 760 mmHg 55%
    02:00 +18°C° 0 mm 2 m/S 760 mmHg 55%
    03:00 +18°C° 0 mm 3 m/S 760 mmHg 55%
    04:00 +17°C° 0 mm 3 m/S 759 mmHg 55%
    05:00 +18°C° 0 mm 3 m/S 759 mmHg 54%
    06:00 +19°C° 0 mm 4 m/S 759 mmHg 52%
    07:00 +20°C° 0 mm 4 m/S 759 mmHg 51%
    08:00 +22°C° 0 mm 5 m/S 759 mmHg 44%
    09:00 +26°C° 0 mm 5 m/S 759 mmHg 38%
    10:00 +29°C° 0 mm 6 m/S 759 mmHg 31%
    11:00 +30°C° 0 mm 6 m/S 758 mmHg 30%
    12:00 +32°C° 0 mm 6 m/S 758 mmHg 29%
    13:00 +33°C° 0 mm 6 m/S 757 mmHg 28%
    14:00 +33°C° 0 mm 6 m/S 756 mmHg 28%
    15:00 +33°C° 0 mm 5 m/S 755 mmHg 28%
    16:00 +34°C° 0 mm 4 m/S 754 mmHg 28%
    17:00 +32°C° 0 mm 4 m/S 754 mmHg 32%
    18:00 +29°C° 0 mm 4 m/S 754 mmHg 35%
    19:00 +27°C° 0 mm 4 m/S 753 mmHg 39%
    20:00 +27°C° 0 mm 5 m/S 753 mmHg 36%
    21:00 +27°C° 0 mm 6 m/S 753 mmHg 34%
    22:00 +27°C° 0 mm 7 m/S 752 mmHg 32%
    23:00 +27°C° 0 mm 7 m/S 752 mmHg 30%

    25 Oktober, Freitag

    Zeit Temperatur Niederschläge Wind Luftdruck Luftfeuchtigkeit
    00:00 +27°C° 0 mm 7 m/S 751 mmHg 29%
    01:00 +27°C° 0 mm 8 m/S 750 mmHg 28%
    02:00 +26°C° 0 mm 8 m/S 749 mmHg 28%
    03:00 +26°C° 0 mm 8 m/S 749 mmHg 27%
    04:00 +26°C° 0 mm 9 m/S 748 mmHg 27%
    05:00 +26°C° 0 mm 9 m/S 748 mmHg 30%
    06:00 +26°C° 0 mm 9 m/S 748 mmHg 33%
    07:00 +26°C° 0 mm 9 m/S 749 mmHg 36%
    08:00 +24°C° 0.2 mm 7 m/S 749 mmHg 42%
    09:00 +23°C° 0.2 mm 6 m/S 750 mmHg 48%
    10:00 +23°C° 0.2 mm 5 m/S 750 mmHg 54%
    11:00 +22°C° 0.3 mm 5 m/S 750 mmHg 54%
    12:00 +22°C° 0.3 mm 5 m/S 750 mmHg 53%
    13:00 +22°C° 0.3 mm 5 m/S 750 mmHg 53%
    14:00 +21°C° 0.1 mm 6 m/S 751 mmHg 53%
    15:00 +20°C° 0.1 mm 6 m/S 751 mmHg 53%
    16:00 +19°C° 0.1 mm 6 m/S 751 mmHg 54%
    17:00 +17°C° 0.1 mm 6 m/S 751 mmHg 53%
    18:00 +16°C° 0.1 mm 5 m/S 752 mmHg 53%
    19:00 +15°C° 0.1 mm 5 m/S 752 mmHg 53%
    20:00 +14°C° 0.1 mm 5 m/S 752 mmHg 53%
    21:00 +13°C° 0.1 mm 5 m/S 752 mmHg 54%
    22:00 +13°C° 0.1 mm 5 m/S 753 mmHg 54%
    23:00 +12°C° 0 mm 5 m/S 752 mmHg 56%
    Mehr zeigen